Regional Weather Roundup
Issued by NWS

Home | Current Version | Previous Version | Text Only | Print | Product List | Glossary On
Versions: 1 2 3 4 5 6 7 8 9 10 11 12 13 14 15 16 17 18 19 20 21 22 23 24 25 26 27 28 29 30 31 32 33 34 35 36 37 38 39 40 41 42 43 44 45 46 47 48 49 50
000
ASUS43 KFSD 301002
RWRSD

WEATHER ROUNDUP FOR SOUTH DAKOTA
NATIONAL WEATHER SERVICE SIOUX FALLS SD
500 AM CDT FRI SEP 30 2016

NOTE: "FAIR" INDICATES FEW OR NO CLOUDS BELOW 12,000 FEET WITH NO
SIGNIFICANT WEATHER AND/OR OBSTRUCTIONS TO VISIBILITY.


SDZ001>005-009-010-012>017-301100-
NORTHWEST AND NORTH CENTRAL SOUTH DAKOTA

CITY           SKY/WX    TMP DP  RH WIND       PRES   REMARKS
BUFFALO          N/A     58  45  62 S8        30.03S
FAITH            N/A     54  42  64 SE21      30.12F
MOBRIDGE       PTCLDY    57  45  64 S18G28    30.18F
$$

SDZ012>016-024>037-041>051-057-063-072>074-301100-
SOUTHWEST AND SOUTH CENTRAL SOUTH DAKOTA

CITY           SKY/WX    TMP DP  RH WIND       PRES   REMARKS
RAPID CTY ARPT PTCLDY    58  42  55 S17       30.12F
PIERRE         PTCLDY    52  44  74 SE14      30.20F
CUSTER         CLOUDY    55  40  56 W3        30.22F
ELLSWORTH AFB  CLOUDY    59  43  56 S13       30.09F
PHILIP         PTCLDY    49  41  74 E7        30.16F
PINE RIDGE     CLOUDY    56  41  57 S20G32    30.15F
WINNER         FAIR      52  45  77 S15       30.24F
$$

SDZ004>011-016>023-039-040-301100-
NORTHEAST SOUTH DAKOTA

CITY           SKY/WX    TMP DP  RH WIND       PRES   REMARKS
ABERDEEN       CLEAR     45  42  89 SE7       30.29F
WATERTOWN      CLEAR     49  45  86 SE6       30.32F
SISSETON         N/A     39  38  96 SE6       30.33F
$$

SDZ017-020-022-023-036>040-048>070-301100-
SOUTHEAST SOUTH DAKOTA

CITY           SKY/WX    TMP DP  RH WIND       PRES   REMARKS
SIOUX FALLS    CLEAR     45  43  93 NE5       30.33F
HURON          CLEAR     48  45  89 SE9       30.29F
CHAMBERLAIN    CLEAR     50  47  92 SE8       30.26F
MITCHELL       CLEAR     45  43  93 SE6       30.31S
YANKTON        CLEAR     45  43  93 NE5       30.30F
$$

ABBREVIATIONS USED IN REMARKS
   TC - TEMPERATURE IN CELSIUS
  WCI - WIND CHILL INDEX
   HX - HEAT INDEX
  VSB - VISIBILITY





USA.gov is the U.S. government's official web portal to all federal, state and local government web resources and services.